TIANWANG 1B (TW-1B)
1 40927U 15051C   19120.53414711  .00008633  00000-0  13919-3 0  9999
2 40927  97.1443 166.2546 0008029 191.3388 274.9294 15.53130035202382
TIANWANG 1A (TW-1A)
1 40928U 15051D   19120.45842450  .00002414  00000-0  61530-4 0  9990
2 40928  97.1514 152.8510 0009367 248.8719 218.9864 15.40467553201593
LAPAN A2
1 40931U 15052B   19120.17753219  .00000666  00000-0  36890-5 0  9997
2 40931   6.0002  49.6938 0012709 173.9136 186.1565 14.76604815193934
LQSAT
1 40958U 15057A   19120.45326039  .00000005  00000-0  84745-5 0  9997
2 40958  97.9017 190.9702 0019066  43.0819 317.1877 14.73075077191552
CHUBUSAT 2
1 41338U 16012B   19119.38872095  .00000312  00000-0  17541-4 0  9990
2 41338  31.0026 104.4441 0013786 324.6566  35.3155 15.00130367175357
CHUBUSAT 3
1 41339U 16012C   19120.29556079  .00000318  00000-0  17960-4 0  9995
2 41339  31.0091  96.8413 0013761 340.9875  19.0242 15.00307861175485
OUFTI-1
1 41458U 16025C   19119.88139279 +.00001274 +00000-0 +68715-4 0  9999
2 41458 098.1014 204.2029 0167666 164.0620 196.5975 15.05628720165074
E-STAR-2
1 41459U 16025D   19120.48443481  .00001343  00000-0  72428-4 0  9994
2 41459  98.1032 204.5280 0169414 163.1259 197.5668 15.05288537165144
AAUSAT 4
1 41460U 16025E   19120.52064732  .00002479  00000-0  12766-3 0  9998
2 41460  98.0968 205.6855 0159313 156.4685 204.3933 15.07095078165261
NUSAT 1
1 41557U 16033B   19120.50833203  .00001229  00000-0  48917-4 0  9999
2 41557  97.4172 208.3002 0015548 110.0196 250.2718 15.27080983162580
BEESAT 4
1 41619U 16040W   19119.91177781 +.00001195 +00000-0 +53768-4 0  9993
2 41619 097.3717 183.0545 0011089 190.0377 170.0640 15.22978992146282
PRATHAM
1 41783U 16059A   19119.67182856  .00000050  00000-0  18962-4 0  9993
2 41783  98.0722 180.3457 0033687 179.0235 181.1038 14.62986454138233
ALSAT 1N
1 41789U 16059G   19120.38648017  .00000049  00000-0  18327-4 0  9998
2 41789  98.0731 182.9316 0028450 166.1833 194.0155 14.64233155138434
NAYIF 1
1 42017U 17008BX  19119.90976251 +.00001295 +00000-0 +54166-4 0  9993
2 42017 097.4067 187.5105 0005952 001.3930 358.7323 15.25373055122331
MAX VALIER SAT
1 42778U 17036P   19119.69268321  .00000841  00000-0  39862-4 0  9998
2 42778  97.3592 178.4491 0013594  46.4583 313.7780 15.21912531102632
